Location: Cary
(35.7910°N, 78.7810°W)
Time: 00:41:57

N. Korean satellite - Visible Passes

Search period start: 19 March 2018 00:00
Search period end: 29 March 2018 00:00
Orbit: 460 x 512 km, 97.2° (Epoch: 18 March)

Date Brightness Start Highest point End Pass type
(mag) Time Alt. Az. Time Alt. Az. Time Alt. Az.
19 Mar 10.7 06:45:25 10° E 06:45:49 10° E 06:46:14 10° E visible
20 Mar 9.8 19:59:26 10° SW 20:02:05 19° W 20:04:48 10° NW visible
24 Mar 9.7 19:57:29 10° SW 20:00:15 20° W 20:03:05 10° NW visible
27 Mar 10.5 20:21:38 10° WSW 20:22:23 10° W 20:23:07 10° W visible
28 Mar 9.7 19:55:30 10° SSW 19:58:22 21° W 20:01:18 10° NW visible
